Theta_e
288 288 288 288 287 287 287 287 287 287 287 287 286 286 286 286 285 285 285 284 284 284 283 283 283 283 283 283 283 282 282 282 282 282 282 281 281 281 280 280 279 280 280 280 281 281 280 280 280 281 281 280 280 280 280 281 281 281 281 281 280 281 280 279 277 277 279 282 282 281 283 283 282 283 283 283 283 284 285 284 284 284 285 285 285
288 287 287 287 286 286 286 286 286 286 286 286 285 285 285 285 285 284 283 284 284 284 283 284 283 283 282 282 282 282 281 281 281 280 280 280 280 282 281 279 279 279 279 279 280 281 280 279 279 280 281 280 280 279 279 279 279 279 279 280 279 279 280 278 277 276 275 279 279 281 281 283 280 283 282 281 281 282 282 282 283 284 284 284 284
287 287 286 285 285 285 285 285 285 285 284 284 284 284 284 284 284 284 283 283 283 283 283 282 282 282 281 281 281 281 281 280 280 280 279 279 279 279 280 278 278 278 278 278 279 279 279 279 279 279 281 278 278 278 279 279 279 278 278 278 278 278 279 279 277 275 275 276 278 278 279 280 280 280 281 281 281 282 281 281 281 283 283 283 283
287 286 286 285 285 284 284 284 284 283 283 283 282 283 283 283 284 284 283 283 282 282 282 281 281 281 280 280 280 280 280 280 279 279 279 278 278 278 278 278 278 278 278 278 278 278 278 278 278 278 278 277 277 277 278 278 278 277 277 277 277 277 278 278 278 276 276 275 276 277 279 278 279 280 281 281 280 280 280 280 281 281 281 282 283
286 285 285 284 284 284 283 283 283 283 283 283 283 283 283 283 283 282 282 282 281 281 281 280 280 280 280 279 279 279 279 279 278 278 278 278 277 277 277 277 277 278 278 278 278 278 278 277 277 278 277 276 276 276 277 276 276 276 276 276 276 277 277 277 277 277 276 275 275 277 278 278 278 278 279 278 278 278 279 279 279 280 280 282 283
285 285 285 284 283 283 282 282 282 282 283 283 283 283 283 282 282 282 282 281 280 280 280 280 279 279 279 278 278 278 278 278 277 277 277 277 277 277 277 277 277 278 278 278 278 278 277 277 277 277 277 276 276 276 276 276 276 275 275 276 276 276 276 276 276 276 275 275 275 274 276 275 275 276 277 277 276 275 276 277 278 279 279 278 279
285 284 284 283 283 282 282 282 282 283 284 284 283 283 282 282 281 280 280 280 279 279 279 278 279 278 278 278 277 277 277 277 277 277 277 277 276 276 277 277 278 278 278 278 278 278 278 277 277 277 276 276 276 275 275 275 275 275 276 275 276 275 275 275 275 274 274 273 273 274 273 274 274 273 275 276 276 275 274 274 274 276 277 276 276
284 284 283 283 282 282 283 283 283 284 284 284 283 283 282 281 280 280 279 279 278 278 278 278 278 278 277 277 277 277 276 276 277 277 276 276 276 276 277 277 278 278 278 278 278 278 277 277 277 277 277 276 276 276 275 274 275 274 275 275 275 274 273 273 273 273 273 272 272 271 272 272 273 274 275 275 273 273 275 274 272 273 274 276 276
284 283 283 282 283 283 284 284 284 284 283 283 283 282 281 280 279 279 279 279 279 278 278 277 277 277 277 276 276 276 275 275 276 276 275 276 277 277 277 277 277 277 277 277 277 277 277 277 277 277 277 277 278 277 277 277 275 273 274 274 273 273 273 273 272 272 271 271 270 272 271 271 272 272 271 271 271 271 273 274 272 273 274 274 275
283 283 283 283 284 284 284 284 284 283 283 282 282 281 280 279 279 278 278 278 277 277 277 276 276 276 276 276 275 275 275 276 275 275 275 275 276 277 277 277 277 276 276 276 276 277 277 277 277 278 278 278 277 277 278 277 277 276 274 274 273 273 272 272 271 271 270 269 270 270 269 270 270 271 271 271 272 273 272 273 272 273 273 273 274
284 284 283 284 284 284 284 283 283 283 283 282 282 280 279 279 278 278 277 277 276 276 276 275 275 275 275 275 275 275 275 275 275 276 276 277 277 276 276 276 276 276 275 275 275 276 276 276 276 277 277 276 276 277 277 277 277 277 277 277 276 274 272 271 271 271 270 269 270 270 269 269 270 271 271 272 272 272 272 273 273 273 272 271 270
284 284 284 284 285 284 284 284 283 283 282 282 281 280 279 278 278 277 276 276 275 275 275 275 275 275 275 274 274 274 274 275 276 276 276 277 277 276 276 276 275 275 275 275 275 275 275 275 276 276 275 274 274 274 275 276 276 276 276 276 276 276 276 273 271 270 270 269 269 269 270 269 270 271 271 272 272 272 273 273 272 272 272 271 272
284 284 284 284 284 284 284 284 283 283 282 282 280 279 278 277 276 276 275 276 275 274 274 274 274 274 274 273 273 274 273 275 275 276 276 277 277 277 276 276 275 275 275 275 275 275 275 275 274 274 274 275 275 274 273 273 275 275 275 275 275 276 276 276 277 274 272 271 270 270 271 271 271 271 273 273 274 272 272 272 272 272 273 272 272
284 284 284 284 284 284 284 283 283 283 282 281 280 278 277 276 276 276 275 275 274 274 274 273 274 273 273 273 272 273 273 274 275 275 276 276 277 277 276 275 275 275 275 275 275 274 274 273 273 273 273 273 273 273 273 273 273 272 272 273 273 273 275 276 276 276 276 273 272 271 273 273 272 273 274 275 273 272 272 272 273 273 273 272 274
284 284 284 284 284 284 284 284 283 283 282 280 279 277 277 276 276 275 274 274 273 273 273 272 272 272 272 271 271 271 272 274 274 275 276 276 277 277 275 275 275 274 274 274 274 274 273 273 272 272 272 272 273 273 273 272 272 272 272 272 272 273 273 274 274 274 274 274 274 274 274 275 274 275 275 275 275 275 275 274 274 274 274 275 275
284 284 284 284 284 284 284 283 283 282 281 279 278 277 276 276 275 275 274 274 274 274 273 273 271 271 270 270 269 269 270 273 274 275 275 276 276 275 274 274 273 273 273 273 273 273 273 273 272 272 272 272 274 275 275 274 273 272 272 272 273 273 274 276 278 278 277 276 275 275 275 276 278 276 276 276 276 276 276 276 275 274 273 272 271
284 284 284 284 284 284 284 283 283 282 281 279 277 277 276 275 275 274 272 273 273 272 271 271 271 270 269 268 268 268 269 271 273 274 274 275 275 273 273 272 271 271 271 272 272 272 272 272 272 272 272 272 274 275 276 276 273 273 272 273 273 273 274 275 278 279 280 280 281 281 281 281 281 282 281 282 280 279 277 275 274 275 273 271 272
285 284 284 285 285 284 284 283 282 281 280 278 277 277 276 275 274 273 272 272 272 271 271 270 269 269 268 267 268 267 268 270 272 273 274 274 274 272 271 271 271 271 271 272 272 272 273 274 274 272 272 272 275 276 277 276 274 274 273 273 273 273 274 275 276 277 279 280 280 280 281 281 281 281 281 281 281 280 276 273 274 275 272 272 270
284 284 285 285 285 284 284 283 282 281 279 279 277 276 275 274 273 272 272 272 271 271 270 269 268 268 267 267 268 267 266 268 271 272 273 274 273 272 271 270 270 270 270 271 272 272 272 273 274 274 274 274 277 278 278 277 275 274 274 273 273 273 274 275 275 276 276 276 276 276 276 277 277 276 277 280 280 279 277 276 276 274 272 272 272
285 285 285 285 285 284 283 282 281 280 279 278 277 276 275 273 271 271 270 271 270 270 268 268 267 267 267 265 264 266 266 266 267 271 272 273 273 272 271 270 269 270 270 270 270 271 272 272 273 275 276 277 277 278 278 278 275 275 275 274 273 273 276 276 276 275 274 274 274 274 274 275 275 276 276 276 276 276 276 276 276 275 273 272 272
285 285 285 284 284 283 282 281 280 279 279 278 276 274 273 272 270 269 268 269 269 268 267 267 266 266 266 266 265 264 265 264 265 270 271 272 273 273 271 271 270 270 270 270 270 270 271 272 273 275 276 277 277 277 278 278 279 277 276 274 274 275 277 274 274 275 273 273 272 272 272 273 273 273 273 273 274 274 275 275 275 275 274 272 272
285 285 284 283 282 281 279 279 279 278 276 275 273 272 271 270 269 268 269 268 266 266 265 265 265 265 266 266 265 265 266 267 265 268 271 272 273 274 272 271 272 271 270 270 271 271 272 273 273 274 276 277 277 278 279 279 279 276 274 277 278 277 274 274 273 271 270 270 270 270 270 270 270 270 271 272 272 273 274 274 275 275 275 275 273
283 283 282 280 279 278 277 276 275 274 273 273 271 270 268 267 267 267 267 266 265 264 264 264 265 265 265 266 266 265 265 266 269 267 270 272 273 273 274 273 275 273 272 271 271 272 272 273 274 275 276 277 278 278 278 278 276 274 276 276 276 276 274 270 270 269 268 268 268 267 267 268 268 268 269 270 271 272 272 273 274 274 274 274 275
280 280 278 278 276 275 273 272 272 270 270 270 270 269 267 266 265 265 265 265 265 264 265 265 265 265 265 266 267 267 266 265 267 269 269 271 272 273 274 275 275 273 273 272 272 273 273 273 273 276 277 277 277 277 276 275 273 274 274 274 274 272 269 268 267 267 267 266 266 266 266 267 268 268 268 270 270 271 272 272 272 273 273 273 273
277 276 276 275 274 272 270 269 268 268 268 268 268 268 266 265 265 265 264 265 266 267 267 267 266 266 267 267 267 267 266 266 266 268 270 271 272 273 274 275 275 275 273 273 273 273 274 276 277 277 276 275 275 274 272 271 272 272 273 272 271 267 267 266 266 265 264 264 265 265 265 266 267 268 269 269 270 270 270 271 272 272 273 273 273
274 275 274 273 271 269 268 267 266 266 266 268 268 269 266 265 266 266 265 265 266 266 267 268 267 267 266 267 267 267 267 266 266 267 269 270 271 272 273 274 274 274 274 273 275 276 276 276 275 275 274 273 270 269 268 268 271 271 270 269 266 266 265 265 264 264 263 264 264 264 264 266 266 267 268 268 268 268 269 269 270 270 271 271 271
274 273 272 271 269 267 267 267 266 265 265 266 267 268 267 266 267 267 266 266 266 266 267 267 267 266 266 266 266 266 266 267 267 268 269 269 270 271 271 272 273 274 273 272 273 273 273 272 272 273 273 272 271 270 269 269 267 266 266 266 265 265 265 264 264 264 264 264 264 264 265 266 267 266 266 266 266 267 268 268 268 268 269 270 270
274 273 271 270 268 266 267 266 265 265 264 265 266 267 267 267 267 267 267 267 267 267 266 266 266 266 266 267 266 266 266 266 267 267 268 269 270 271 271 272 271 271 271 272 272 271 270 270 270 267 266 265 265 265 265 265 265 265 264 264 264 265 266 267 267 265 265 265 265 265 265 265 265 265 266 266 266 267 268 268 268 268 269 269 268
272 272 270 269 268 266 267 267 266 266 264 264 265 267 266 266 267 267 267 268 269 268 268 268 267 267 267 267 266 265 266 266 267 270 270 271 271 271 271 271 271 271 273 274 271 269 268 266 265 265 264 264 263 263 264 264 264 264 263 263 264 264 264 263 263 263 264 264 264 264 264 264 265 265 266 266 266 267 268 268 268 268 268 269 267
270 271 269 268 268 266 267 267 266 267 265 264 264 264 266 268 267 266 265 268 269 270 270 267 267 267 266 266 267 266 266 268 271 273 273 273 274 275 274 274 274 273 275 273 269 267 265 264 264 263 263 262 262 263 263 263 262 262 263 265 264 263 263 263 264 264 264 264 264 264 264 264 264 265 265 266 266 267 268 268 267 268 267 267 267
271 271 269 269 268 267 267 267 266 267 266 265 265 264 264 266 269 270 269 268 269 270 271 271 271 270 267 266 268 272 272 272 273 273 274 274 274 274 274 274 274 275 273 269 267 265 263 263 263 263 263 262 262 262 263 262 262 262 262 262 262 263 263 263 263 264 264 264 264 264 265 265 265 265 265 265 265 266 266 267 267 267 267 267 266
272 272 271 268 268 267 267 266 266 266 266 266 265 265 265 265 265 269 271 271 270 271 271 272 272 273 273 272 270 269 272 273 274 274 273 273 273 273 273 274 274 273 271 270 265 264 263 263 262 262 262 262 262 263 263 262 262 261 261 261 262 262 263 263 264 264 264 264 264 265 265 265 265 265 265 265 266 265 265 266 266 266 266 266 266
271 270 269 269 267 266 266 266 265 265 264 264 264 265 265 266 266 266 268 271 272 272 272 272 273 273 273 274 274 273 272 272 272 273 272 273 273 273 273 274 272 271 270 267 263 262 263 262 262 262 262 261 262 261 261 261 261 261 261 261 261 262 262 263 264 264 264 264 265 265 265 265 265 265 266 266 265 264 265 265 265 265 265 265 265
267 269 269 267 266 265 265 265 265 265 265 265 264 264 264 265 266 267 266 265 266 269 271 271 272 272 272 272 273 273 273 272 272 272 272 272 272 272 273 271 270 270 268 264 263 262 262 261 261 261 261 261 261 261 261 261 261 261 261 261 261 262 262 263 263 263 264 264 265 265 265 265 265 265 265 265 265 265 265 265 265 264 264 265 265
265 265 264 265 266 266 265 266 265 265 265 264 264 263 263 264 264 263 263 264 264 264 264 266 269 270 268 268 270 270 270 270 270 271 271 272 272 272 272 267 266 265 264 262 261 261 261 261 261 261 261 260 261 261 260 260 260 260 261 261 261 261 262 263 263 263 263 264 264 265 265 265 265 265 265 265 265 264 264 265 265 265 264 264 265
264 265 263 263 264 265 265 264 265 264 263 263 263 263 263 262 262 261 261 261 261 262 262 264 264 266 268 268 268 268 269 269 270 270 271 271 271 271 266 265 264 263 262 261 260 261 261 261 260 260 260 260 261 260 260 260 260 261 261 260 261 261 261 262 262 263 264 264 264 265 265 265 265 265 265 265 265 265 265 265 265 265 265 265 265
264 264 264 263 262 264 263 263 263 263 264 262 262 262 261 261 261 261 261 261 260 261 261 262 261 261 263 263 264 266 268 268 269 270 270 270 271 268 265 264 262 262 261 261 261 260 260 260 260 260 260 260 260 260 260 260 260 260 261 261 260 261 261 261 262 263 263 263 264 264 264 264 265 265 265 264 265 265 265 265 265 265 265 265 266
262 263 263 262 262 262 262 262 261 262 262 261 261 261 260 260 260 260 259 259 260 259 259 260 261 260 260 261 264 262 262 265 266 267 268 269 266 263 263 262 261 260 260 260 260 259 259 259 259 259 259 259 259 259 259 259 260 260 260 260 260 260 262 262 263 262 263 263 264 264 264 264 264 265 265 264 264 264 265 265 265 264 265 265 265
261 262 262 263 263 262 261 261 260 260 260 260 260 260 259 259 259 259 259 259 259 259 259 259 259 259 260 261 260 261 261 260 260 261 262 264 264 263 262 261 260 259 259 259 259 259 259 258 259 259 259 259 259 259 259 259 259 259 259 259 259 259 260 260 261 261 262 263 263 264 264 264 264 264 265 264 264 265 265 265 265 264 264 264 264
261 261 261 262 262 262 261 260 260 260 259 259 259 259 259 259 259 258 259 259 258 258 258 258 258 259 260 260 259 259 258 258 260 261 262 263 262 261 260 259 259 259 259 259 259 258 258 258 258 258 258 258 258 258 259 259 258 259 259 259 259 259 259 259 260 261 261 262 263 263 263 263 264 264 264 265 265 265 265 264 264 265 264 264 264
261 261 260 262 262 262 261 259 259 259 259 259 259 259 259 259 259 259 259 258 258 258 258 258 258 259 260 260 262 262 258 258 260 261 262 262 262 260 259 259 259 258 259 258 258 258 258 258 258 258 258 258 258 258 258 258 258 258 258 259 259 259 259 259 259 260 261 261 262 262 263 263 263 263 263 264 266 265 264 264 264 264 265 265 265
260 260 259 260 260 260 260 260 260 259 259 259 259 259 258 258 258 258 258 257 257 257 257 257 258 258 259 263 263 265 262 260 260 260 261 262 261 261 260 259 259 258 258 258 258 258 258 257 257 257 257 257 257 257 257 257 257 257 257 258 257 257 258 258 258 259 259 260 261 262 262 262 263 263 264 266 264 264 264 263 264 264 264 264 265
259 259 259 259 259 259 259 260 260 259 259 258 258 258 258 258 257 257 257 257 257 257 256 256 257 258 258 261 261 262 262 262 261 261 261 261 260 260 259 259 259 258 258 258 258 257 257 256 256 257 257 257 256 257 257 257 256 257 257 256 257 256 256 257 258 258 259 259 260 261 261 262 262 262 263 264 264 264 263 263 263 263 264 264 264
258 258 257 257 257 257 258 258 258 258 258 258 257 257 257 256 256 256 256 256 256 256 256 256 257 257 257 258 259 259 258 259 259 259 259 259 259 259 259 259 258 258 257 257 257 257 256 256 256 256 256 256 256 255 256 256 256 256 256 256 256 257 256 257 257 257 258 258 258 259 260 261 262 262 263 264 263 262 262 262 263 263 263 263 264
256 256 256 256 256 256 256 256 256 256 256 256 256 256 256 256 256 256 256 256 256 256 256 256 257 257 257 257 257 256 257 257 258 258 258 258 258 258 258 258 257 256 256 256 256 255 255 255 255 254 254 255 255 255 256 256 256 256 256 256 255 256 256 256 256 257 258 257 257 258 259 260 260 260 262 263 263 262 262 262 262 263 262 263 263
256 256 256 256 256 256 256 256 256 256 255 255 255 255 256 256 255 255 255 255 255 255 255 255 256 256 256 256 257 257 257 257 256 257 257 257 257 257 258 257 256 256 256 256 255 254 255 255 255 255 255 254 254 255 255 255 256 256 256 256 256 256 256 256 257 257 257 257 257 257 258 258 259 261 262 263 262 262 261 262 262 262 262 262 263
255 256 256 256 256 256 255 256 255 255 254 254 254 254 254 255 255 255 255 254 254 254 254 255 255 255 255 255 255 256 256 256 256 256 256 256 256 256 256 255 255 255 255 255 253 255 254 254 255 255 254 254 254 254 254 255 255 255 256 256 256 256 256 257 257 257 257 257 257 257 257 258 259 260 262 263 262 261 261 261 261 261 262 262 262
255 255 255 255 255 255 255 255 254 254 254 254 254 254 254 254 254 254 254 254 254 253 253 254 254 254 255 255 256 256 256 256 256 256 256 256 256 255 255 254 254 254 254 254 254 254 254 254 254 254 254 254 254 253 254 254 254 255 255 256 256 256 257 257 256 256 256 257 257 257 258 258 259 261 262 262 261 261 260 261 261 261 261 262 262
255 255 255 255 255 255 255 255 254 254 254 254 254 254 254 254 253 253 254 253 254 254 254 254 254 254 254 254 255 255 255 255 255 255 255 255 255 255 254 254 253 253 253 253 254 254 254 254 254 254 254 254 253 253 253 253 254 254 254 254 255 256 257 257 256 255 257 257 257 258 259 260 261 262 263 261 261 260 260 260 260 261 261 261 261
255 255 255 255 254 254 255 255 255 254 254 254 254 253 254 254 253 253 253 253 253 254 254 254 254 254 254 254 254 254 254 254 254 254 254 255 255 254 254 253 253 253 253 253 253 253 254 254 253 253 253 253 253 253 253 253 253 254 254 254 256 256 256 256 256 257 257 257 258 260 261 261 262 263 263 261 259 259 259 260 261 261 261 260 260
255 255 255 255 254 255 255 254 254 254 254 253 253 253 253 253 253 253 253 253 253 253 254 254 254 254 254 254 254 254 254 254 254 254 254 254 254 254 254 253 253 253 253 253 253 253 253 253 253 253 253 253 253 253 253 253 253 253 254 255 255 256 256 257 256 257 259 260 261 261 261 261 262 262 261 260 259 259 260 261 261 260 260 260 260
Wind_Speed
7 7 6 6 7 8 8 7 7 6 7 7 7 7 7 7 6 6 6 5 5 5 5 4 4 4 4 4 4 4 4 4 3 3 2 3 3 3 3 3 4 4 4 4 3 3 4 4 5 4 3 4 4 4 5 5 4 5 4 5 5 5 6 7 10 13 11 6 8 10 8 9 10 7 10 10 10 11 12 11 12 11 11 11 12
7 7 6 7 7 7 7 6 6 6 6 7 6 6 6 6 7 7 6 6 5 5 5 4 4 4 4 4 4 4 3 3 2 2 2 2 3 1 2 4 4 4 4 5 4 3 4 5 5 4 3 4 5 5 5 5 5 6 5 5 6 6 5 7 9 10 15 11 8 8 8 7 10 6 7 11 13 10 12 13 11 10 10 10 11
7 7 7 8 8 8 7 7 6 6 6 5 5 5 5 6 6 7 6 6 5 5 5 5 4 4 4 4 3 2 2 1 1 1 1 2 2 3 3 4 4 5 5 5 5 5 5 5 5 5 3 5 6 5 5 6 5 6 6 6 7 7 6 6 8 10 13 13 11 10 8 6 7 9 8 8 11 11 12 12 11 10 10 12 12
8 8 7 8 8 8 7 6 6 6 5 4 6 6 6 6 5 5 6 5 5 5 5 5 4 4 3 2 2 1 1 1 1 1 1 2 2 3 4 4 4 5 5 6 6 5 6 6 5 5 5 6 6 6 5 5 5 6 7 7 7 8 7 6 7 9 10 13 12 10 9 9 7 8 8 7 9 10 9 11 12 13 12 11 11
9 9 9 9 9 8 7 7 7 6 5 5 7 6 6 5 5 5 5 6 5 5 5 4 3 3 2 1 1 1 1 1 2 2 1 1 2 3 4 4 5 5 6 6 6 6 6 6 6 6 5 6 6 6 6 7 7 6 7 7 7 7 7 7 8 8 10 12 13 11 9 9 8 8 8 9 9 9 9 11 12 13 13 12 10
9 9 9 9 8 8 7 7 7 7 7 7 7 7 6 5 5 5 5 6 5 5 4 3 3 2 1 0 1 2 2 2 2 2 2 2 2 3 4 4 5 5 6 6 6 6 6 6 6 6 6 6 6 6 7 8 7 7 8 8 7 8 8 8 8 9 10 11 12 14 11 10 11 8 8 8 10 11 10 10 10 10 10 11 11
10 9 9 9 8 9 8 8 8 9 8 8 7 6 5 5 5 5 5 5 5 4 4 3 2 2 1 1 2 2 2 2 2 2 2 2 3 3 4 5 5 5 5 6 6 6 7 7 6 6 6 6 7 7 7 7 6 8 7 8 7 8 8 8 8 9 9 11 11 11 12 10 9 12 9 8 10 9 12 11 10 8 9 11 13
10 10 9 9 9 10 10 9 9 9 8 7 7 6 6 5 5 5 5 5 5 4 4 3 2 2 2 2 2 2 2 3 2 2 2 3 3 4 4 5 5 6 6 6 6 7 7 7 7 7 7 7 7 6 6 7 7 8 7 7 8 8 8 7 8 8 9 10 11 11 11 12 11 9 10 10 11 9 6 10 13 12 11 10 10
10 10 9 9 10 10 9 9 8 7 7 7 7 6 6 6 6 5 5 5 4 4 4 4 3 3 3 3 2 2 2 2 1 1 2 3 3 4 5 5 6 6 6 7 7 7 7 7 7 7 7 8 11 11 11 10 8 8 8 7 7 8 8 8 8 8 9 9 11 10 12 12 11 11 12 10 10 12 10 10 13 11 11 11 10
11 10 11 11 10 9 9 8 8 7 7 7 7 6 6 6 6 6 5 5 4 4 4 4 4 4 3 3 3 3 2 2 1 2 4 3 4 4 5 5 5 6 6 7 7 7 7 7 7 10 12 12 13 14 15 15 15 12 10 9 8 8 9 9 9 8 9 11 11 11 12 12 12 11 12 12 12 12 12 11 12 12 11 12 11
11 12 12 11 10 9 9 9 8 8 7 7 5 5 7 5 4 4 4 5 5 4 4 5 4 4 4 4 4 3 3 3 3 4 6 7 6 5 5 5 6 7 7 7 7 7 7 7 7 8 9 9 10 13 14 14 14 15 16 16 14 11 9 10 10 9 10 11 11 11 11 14 14 12 12 13 12 12 11 11 11 12 12 13 14
12 13 12 11 10 10 9 9 9 8 7 7 6 5 4 5 5 5 4 4 4 4 5 5 5 5 4 4 4 4 4 4 5 6 7 8 8 6 5 6 6 6 7 8 7 7 7 7 7 6 6 7 7 8 11 14 14 15 15 15 15 16 15 12 11 10 9 10 11 11 12 13 15 13 12 12 13 12 11 11 12 12 13 13 13
13 12 12 11 10 10 10 10 8 8 7 6 5 5 4 5 5 5 5 4 4 4 6 5 5 5 5 5 5 4 4 5 6 7 8 9 9 8 6 7 7 7 8 8 8 8 7 7 7 6 6 9 8 8 9 9 11 13 14 14 15 15 15 17 18 14 12 11 12 14 14 15 16 15 13 14 14 15 14 13 12 12 13 14 14
12 12 11 11 11 11 11 9 9 8 8 7 5 5 5 6 5 4 4 4 4 4 4 4 4 5 5 5 5 5 5 5 7 8 9 10 10 9 7 7 8 8 9 9 8 8 7 7 7 7 7 7 7 8 8 8 8 8 8 9 9 11 14 17 19 22 20 15 16 16 16 14 16 16 15 15 16 15 13 14 13 14 16 16 17
11 12 12 12 11 9 11 10 10 8 8 8 7 7 6 5 6 5 5 5 5 5 5 5 4 4 4 3 4 4 4 7 8 9 10 10 10 9 7 7 7 8 8 8 9 8 8 7 8 9 8 8 7 8 8 9 8 7 8 10 12 13 14 14 14 14 14 14 15 17 17 16 17 18 17 15 16 15 14 17 17 16 15 18 16
12 11 12 11 12 12 11 11 11 9 9 9 10 9 7 8 7 5 5 4 4 4 3 4 4 5 4 4 3 5 5 8 9 10 10 10 10 6 6 7 7 7 8 8 8 8 8 8 8 9 9 9 10 13 12 11 10 10 11 11 12 12 12 14 18 19 17 16 16 17 16 19 22 20 19 15 14 14 15 15 14 14 15 13 12
12 12 10 12 13 12 12 12 12 11 11 11 11 11 9 8 6 4 4 4 5 5 4 4 4 4 5 5 5 5 4 6 8 9 9 10 7 5 5 6 7 7 8 8 8 9 9 9 9 9 9 9 11 15 16 15 11 11 12 12 10 9 10 11 19 25 26 27 29 30 30 31 30 31 32 32 24 17 14 13 11 9 11 13 14
11 12 13 11 12 13 12 12 12 11 11 12 13 9 5 3 4 4 5 6 5 5 4 3 4 4 5 5 5 4 3 5 8 9 10 10 8 6 5 6 7 7 8 8 8 8 10 14 13 11 11 11 14 16 18 15 11 10 11 13 14 14 13 11 12 13 23 26 26 26 27 27 29 30 30 28 28 21 13 15 13 11 14 12 15
12 13 13 12 11 12 11 11 11 11 12 13 11 11 10 7 4 4 3 3 3 4 4 3 3 3 3 4 6 6 4 6 9 10 10 10 7 5 5 6 7 7 7 7 7 7 8 9 14 13 13 14 19 18 18 15 10 10 11 12 14 15 13 12 10 10 8 9 11 12 15 19 18 17 17 26 27 22 15 15 13 12 13 13 13
12 10 9 10 10 9 10 10 10 11 12 10 9 9 6 5 6 5 3 3 3 3 3 3 4 3 3 4 4 4 4 4 5 10 9 10 10 6 5 6 7 7 7 7 7 7 8 9 11 14 16 16 16 17 18 20 14 12 13 12 10 9 7 10 12 13 14 13 14 15 16 16 15 14 12 12 13 13 16 15 13 12 13 13 12
9 9 9 8 8 9 8 9 11 10 9 9 8 7 5 6 6 6 5 3 3 3 4 3 2 3 3 4 4 4 5 4 6 10 10 10 11 10 6 7 7 7 7 7 7 8 8 8 8 11 15 16 17 19 20 21 21 13 9 8 10 16 21 15 16 21 14 12 12 12 11 11 11 11 12 12 12 11 12 14 15 15 14 13 13
9 8 7 7 7 7 8 8 8 8 6 7 8 8 5 5 6 6 4 4 5 3 3 2 3 3 3 4 4 4 6 9 5 8 10 11 12 13 8 7 8 7 8 8 8 8 8 8 8 11 16 18 19 20 22 20 22 13 13 22 27 27 19 14 11 9 9 10 10 10 10 10 10 10 10 10 10 11 12 12 13 14 13 12 12
6 7 6 7 7 8 7 8 8 6 7 8 10 9 6 6 6 5 5 4 5 5 3 3 3 3 3 4 4 5 4 5 10 8 11 12 12 13 14 11 13 9 8 8 8 8 8 9 10 15 17 19 21 21 21 24 20 14 23 23 22 23 18 9 9 9 9 9 9 10 10 10 10 10 10 10 10 11 12 12 12 12 11 11 13
5 5 6 7 7 7 6 6 6 6 7 8 8 10 9 7 5 4 4 4 4 4 4 4 4 4 4 4 4 4 4 4 7 11 10 12 12 13 13 14 14 9 9 8 8 8 9 8 9 17 20 20 21 22 22 21 15 20 20 21 21 17 8 8 6 7 8 9 10 10 10 10 10 10 10 11 11 11 13 13 13 13 13 13 14
6 6 7 7 7 6 5 6 6 6 7 9 10 8 9 8 6 5 5 5 5 5 5 5 5 4 4 4 3 3 4 5 4 7 12 11 12 13 13 13 13 13 9 8 9 9 11 17 19 18 18 20 21 21 16 15 16 17 18 17 15 5 6 6 7 7 8 9 9 10 10 10 11 12 12 13 14 13 13 12 12 12 13 14 14
7 9 7 6 6 6 8 5 5 5 7 4 5 4 6 7 6 6 6 5 5 5 4 4 4 4 4 3 3 3 4 4 4 5 7 9 9 11 12 12 12 12 12 10 14 17 17 15 15 17 17 15 12 9 8 8 14 16 15 12 4 4 4 5 5 6 8 9 9 10 10 10 11 11 13 13 12 11 11 11 11 11 10 11 11
8 7 8 7 6 7 9 6 5 5 4 4 4 4 6 6 5 5 6 6 6 5 5 5 4 4 4 4 4 4 4 4 5 4 5 5 5 7 7 7 9 10 8 8 9 6 5 5 9 15 14 17 15 13 12 11 8 6 4 3 4 4 4 4 6 8 9 9 10 9 9 10 11 11 11 11 12 11 11 11 11 11 11 11 12
10 9 9 7 6 6 5 9 7 5 6 6 7 6 5 6 7 8 8 8 7 6 6 6 6 5 4 4 4 4 4 5 5 5 5 5 6 6 6 5 5 5 7 6 4 1 1 5 8 5 3 4 5 4 4 4 5 5 3 3 4 6 8 11 11 7 7 7 8 9 9 9 9 10 10 10 10 11 11 10 10 11 11 11 11
7 5 5 5 4 4 5 5 6 6 5 4 3 3 5 6 6 3 2 2 3 5 5 5 5 4 4 4 5 4 5 6 7 8 8 9 8 6 5 5 5 6 8 10 2 1 1 2 3 3 3 3 3 4 3 4 4 4 4 4 4 4 3 3 5 6 6 7 9 9 10 9 10 9 9 10 10 10 10 10 11 11 11 11 12
4 5 4 3 3 4 4 4 4 4 4 5 4 2 2 5 4 2 1 5 7 6 5 3 3 4 4 4 5 6 5 5 8 12 13 13 14 14 12 11 12 10 12 2 5 0 1 2 3 3 3 3 3 4 4 4 4 5 4 6 5 3 3 4 5 6 7 8 8 9 9 9 9 9 9 10 10 10 11 13 11 11 11 11 12
3 3 5 5 6 4 4 3 4 3 3 4 4 4 3 4 10 12 9 7 9 12 12 12 11 11 7 5 7 13 13 14 14 14 15 14 13 12 12 13 13 13 2 5 1 0 2 3 3 3 3 3 3 4 4 4 4 5 5 5 3 4 5 4 4 6 8 8 9 8 8 8 9 9 10 10 11 11 11 10 10 10 10 11 12
4 4 3 2 5 5 3 3 3 4 3 4 4 5 4 3 3 11 15 13 12 13 14 15 15 15 16 13 9 6 11 14 16 15 14 13 13 12 12 13 12 6 5 5 1 2 3 4 3 3 3 3 3 3 4 4 5 5 5 6 5 3 4 4 6 6 8 8 8 9 9 8 8 9 9 10 11 10 10 11 10 11 11 11 12
6 1 3 4 3 5 3 3 3 4 4 4 4 4 4 5 4 3 6 14 15 15 15 15 15 16 16 16 17 14 12 11 13 13 13 14 13 12 13 13 7 7 6 2 2 3 3 3 3 3 3 3 3 3 3 3 4 4 4 5 6 6 5 6 8 8 8 8 9 8 8 9 9 10 10 10 10 10 10 11 10 10 11 11 12
3 2 2 3 3 3 4 3 4 4 4 4 4 4 4 4 3 2 4 3 4 9 13 15 14 14 14 15 16 15 14 13 13 13 14 14 14 13 14 5 6 6 5 2 3 3 3 3 3 3 3 3 3 3 3 3 3 4 5 5 5 6 6 6 6 7 8 9 8 9 9 9 9 9 10 10 9 9 10 11 10 11 11 11 12
2 1 2 4 2 2 3 3 3 3 3 3 3 3 3 2 2 2 2 3 4 4 4 5 9 12 8 7 9 10 11 12 13 14 15 15 13 15 10 4 3 3 2 3 3 3 4 4 3 3 3 3 3 3 3 3 4 4 4 5 5 5 6 7 7 8 8 8 9 8 9 10 9 9 10 10 10 10 10 10 10 10 11 11 11
1 1 2 1 1 1 2 2 2 2 2 1 1 2 2 2 2 2 2 2 2 2 3 2 2 4 8 9 10 12 13 14 14 15 14 14 14 11 6 4 3 3 3 3 4 4 3 3 3 3 3 3 3 3 3 4 4 4 4 4 5 5 5 6 7 7 8 9 9 10 10 9 9 10 10 10 10 10 10 10 11 11 11 11 11
1 1 2 2 1 1 2 2 1 1 2 2 2 2 1 1 1 2 2 3 3 3 3 2 1 2 6 5 7 10 12 12 13 13 12 13 14 7 4 4 3 3 3 3 3 3 4 4 3 3 3 3 3 3 3 4 4 4 5 5 5 6 6 5 7 8 9 9 9 9 9 9 9 9 10 10 10 10 10 10 11 12 13 14 16
2 2 2 3 2 2 2 2 2 3 2 2 2 2 2 2 2 2 2 3 4 4 4 4 4 4 3 3 6 3 3 6 9 10 11 12 6 4 5 4 3 4 4 3 4 3 4 3 3 3 3 3 3 3 3 4 4 4 4 4 5 5 10 10 10 8 8 8 8 8 8 9 9 10 10 10 10 11 11 11 11 11 12 14 11
2 5 6 5 4 2 2 2 2 2 2 2 2 2 1 2 2 2 3 3 4 5 4 4 4 4 4 2 2 3 3 3 5 6 6 6 4 4 3 4 3 4 3 4 3 3 3 4 4 3 3 3 3 3 3 4 4 4 4 4 6 5 6 5 6 6 7 7 8 8 8 8 9 9 10 10 10 10 11 12 12 11 11 11 11
3 2 3 4 2 3 2 2 2 2 1 1 1 2 2 2 3 3 4 4 5 5 5 5 5 5 4 3 3 3 3 4 5 5 5 6 5 3 3 4 4 4 4 4 4 4 4 4 3 3 3 3 4 4 4 4 4 5 4 5 5 6 6 5 6 6 7 7 8 8 8 8 8 10 10 10 9 9 11 12 12 12 11 12 12
3 3 2 2 2 2 3 2 2 2 2 2 2 2 3 3 3 3 4 5 5 5 5 5 5 4 4 5 9 8 4 4 4 4 5 5 5 4 4 3 4 4 4 4 4 4 4 4 3 3 3 3 3 4 4 4 4 4 5 6 6 6 6 5 6 6 7 8 8 8 8 8 9 10 11 10 11 11 11 12 11 11 11 11 12
3 3 2 1 2 1 1 1 1 2 2 2 3 4 3 3 3 4 4 5 4 4 5 5 4 4 6 13 12 14 9 6 5 5 6 6 6 5 3 3 3 3 4 4 4 4 4 4 3 3 4 4 4 3 3 4 4 4 5 5 6 6 6 6 5 6 7 8 8 8 8 8 10 11 12 12 9 9 11 12 11 11 11 11 11
2 1 1 1 1 1 1 1 1 1 2 2 3 3 3 3 2 3 3 4 4 4 5 5 4 4 5 9 9 11 7 5 5 6 6 5 5 5 4 4 3 3 4 4 3 3 3 3 3 4 4 4 4 4 4 4 3 4 4 5 6 7 7 6 5 6 6 7 8 8 9 9 10 9 10 10 9 10 10 12 12 11 11 11 11
2 1 1 1 1 0 0 0 0 1 1 1 1 2 2 2 3 3 4 4 4 4 5 5 5 5 5 5 6 6 6 6 5 5 5 5 4 4 4 4 3 3 3 3 3 3 3 4 4 4 4 4 4 4 4 4 4 5 5 6 6 7 7 6 6 5 5 6 8 9 9 9 9 9 10 10 8 10 11 11 12 11 11 10 11
1 1 1 1 1 1 0 0 0 0 1 1 2 2 3 3 4 4 4 4 5 5 5 5 5 5 5 5 5 5 6 6 5 4 5 5 5 4 4 4 3 4 3 3 3 4 4 4 4 4 4 4 4 4 5 5 5 5 5 6 6 8 7 6 5 5 5 7 8 9 9 8 9 10 10 9 7 9 10 11 11 12 12 11 11
1 1 1 1 0 1 1 0 0 0 1 1 2 2 2 2 3 3 4 4 5 5 5 5 4 5 5 6 6 6 7 6 6 5 4 4 5 4 4 3 3 4 4 4 3 4 4 4 4 5 5 5 5 5 5 4 5 6 6 6 8 8 7 6 5 6 6 7 7 8 9 9 10 9 12 9 7 9 10 11 10 10 10 12 12
1 1 1 0 0 0 0 0 0 1 1 2 2 2 2 3 3 3 4 5 5 5 4 5 4 5 5 5 6 6 6 6 5 5 5 5 4 4 3 3 3 3 3 4 4 4 4 5 5 6 6 6 5 6 6 6 5 6 6 7 7 8 7 6 6 5 6 6 7 8 9 9 10 10 11 9 7 9 10 10 10 11 11 10 11
0 0 0 0 0 0 0 1 1 2 2 2 3 3 3 3 3 3 3 4 4 5 5 5 5 6 5 6 5 5 5 5 5 4 4 4 4 5 4 4 4 4 4 4 4 4 5 5 6 6 6 6 6 6 6 6 6 6 6 6 6 7 8 8 6 6 6 7 8 9 10 10 10 11 10 7 8 8 9 10 10 10 10 10 10
0 0 0 0 0 1 1 2 2 2 2 3 3 3 3 3 3 3 3 4 4 4 5 5 5 5 5 5 4 4 4 4 5 5 4 4 4 4 4 4 5 4 4 5 5 5 5 6 6 6 6 6 6 7 7 6 7 7 7 7 8 13 14 14 10 8 10 9 9 10 10 10 11 11 9 7 8 8 8 9 9 10 10 10 10
0 0 0 1 1 2 2 2 2 2 2 2 3 3 3 3 3 3 4 3 4 4 5 5 5 5 5 4 4 4 4 4 5 5 4 4 4 4 4 4 5 5 5 5 5 5 5 5 6 6 6 6 6 7 6 7 7 8 7 8 12 15 14 16 16 17 13 9 10 9 9 10 11 11 8 6 7 8 8 8 9 9 9 9 9
1 1 2 2 2 2 2 2 3 3 3 3 3 3 3 3 3 3 3 4 4 5 5 5 5 5 5 5 5 5 5 5 5 4 4 4 4 4 4 4 5 5 5 5 5 5 6 5 5 6 6 6 7 7 6 7 7 7 10 14 16 15 16 15 12 14 18 14 9 9 10 11 11 10 7 6 7 7 9 9 9 8 8 8 8
Wind_Direction
148 143 140 143 143 145 145 147 149 151 155 154 144 143 143 143 146 144 148 154 161 155 142 134 123 118 108 90 76 68 60 47 35 25 21 17 5 19 344 342 336 325 323 319 314 318 319 314 309 312 314 310 312 310 303 301 298 291 290 288 286 285 286 283 284 288 290 284 291 298 302 304 298 298 299 305 313 318 320 312 312 306 304 305 309
158 148 147 148 153 149 150 151 153 156 157 153 148 148 152 153 149 155 153 154 152 134 124 119 103 91 88 73 68 63 56 48 36 15 14 352 355 0 335 331 323 319 319 313 322 321 316 307 308 309 319 312 303 299 299 304 301 297 290 293 291 291 293 292 286 288 292 300 291 292 296 293 288 304 319 313 309 314 311 309 307 306 306 310 306
155 152 153 155 159 156 156 159 160 162 156 153 149 154 157 155 165 161 147 140 127 112 105 96 87 81 72 66 63 60 47 49 25 24 345 350 337 335 327 323 316 314 313 311 316 315 310 307 306 310 312 309 304 299 301 298 297 297 299 298 292 292 292 289 289 287 290 293 299 300 300 305 305 310 315 303 300 306 306 306 307 309 307 304 302
158 157 156 161 160 160 162 161 162 163 160 157 161 165 164 166 163 142 133 125 112 96 90 84 79 70 71 70 67 45 8 352 320 333 339 333 326 317 316 311 303 300 300 303 306 311 305 303 299 312 313 303 301 304 301 303 307 304 300 295 292 294 294 292 286 284 291 295 297 302 306 309 304 303 300 295 295 300 304 304 305 302 301 300 297
162 163 163 163 163 163 163 163 166 168 171 171 176 169 166 155 142 133 121 109 103 105 92 79 75 76 69 57 358 292 304 304 297 290 302 298 298 294 292 294 293 291 291 292 295 292 291 289 295 301 302 298 297 299 303 309 299 297 294 297 295 295 295 293 291 287 288 289 294 298 305 302 303 305 308 310 307 303 306 300 297 298 300 299 301
167 165 165 165 163 164 164 167 173 177 182 178 172 168 160 146 133 119 113 109 102 95 97 88 89 78 85 308 284 287 279 286 286 283 286 293 288 287 284 285 285 288 288 287 286 287 286 287 290 293 291 290 291 293 296 293 295 290 290 291 294 296 295 295 293 292 290 289 296 302 307 312 312 305 316 318 312 309 303 297 293 296 306 315 313
168 166 166 164 165 169 170 177 180 187 186 175 169 161 154 143 132 122 114 113 112 112 111 111 115 140 212 214 254 264 277 280 277 281 279 278 283 280 285 282 283 285 282 284 284 282 280 281 282 280 279 281 283 287 291 294 291 291 292 297 298 299 297 295 299 300 297 297 296 294 300 302 303 305 313 312 303 301 305 308 301 304 309 306 304
167 167 166 170 175 178 180 182 186 186 178 168 162 156 143 138 129 120 118 119 121 128 136 140 157 173 205 220 233 250 266 268 272 278 281 283 283 283 278 282 286 286 284 285 285 281 278 277 274 273 272 273 276 282 292 297 298 297 298 299 299 300 299 302 305 301 297 295 293 298 299 300 303 297 302 308 305 299 299 306 304 307 304 298 297
169 171 173 179 185 184 182 183 182 172 161 159 158 152 145 142 134 128 125 127 127 137 141 148 169 200 201 212 225 243 251 258 264 311 316 303 295 292 291 286 285 287 286 284 280 278 276 275 271 267 266 269 271 274 276 277 284 287 290 293 298 300 297 296 294 295 293 292 292 294 295 296 297 305 307 305 303 302 306 301 292 295 298 299 300
173 179 183 189 187 183 180 168 170 161 160 164 161 149 149 147 141 135 136 142 146 151 155 165 183 199 207 212 217 223 239 240 210 272 273 279 298 292 290 282 280 279 280 280 278 276 274 270 268 268 270 268 269 270 272 272 275 275 280 287 288 288 287 288 287 288 290 289 288 295 294 293 296 300 297 296 296 295 293 292 295 301 302 296 290
183 185 191 191 187 176 169 171 172 169 165 162 156 151 153 151 147 140 147 151 158 161 170 180 187 195 202 213 219 225 226 228 226 259 265 269 275 279 277 279 278 277 273 272 273 273 270 271 273 274 274 270 266 267 269 271 270 272 275 276 277 277 282 282 280 283 283 282 285 286 286 288 289 290 290 295 290 288 286 289 293 299 300 302 302
186 191 192 187 181 173 171 166 175 173 164 170 154 153 147 152 150 149 152 157 170 170 192 190 187 188 197 211 219 226 237 235 246 258 266 268 266 266 268 271 271 267 266 265 267 271 274 275 272 271 270 267 274 280 279 277 276 274 276 279 279 276 269 267 274 277 274 278 281 280 283 282 284 285 286 285 285 284 284 287 288 289 289 289 290
188 190 187 183 178 179 179 174 177 177 172 160 155 144 152 156 155 157 164 167 168 182 198 191 188 191 198 207 220 227 234 243 248 257 262 266 266 266 266 263 264 262 262 264 268 269 271 274 274 272 270 273 271 267 268 273 275 277 277 276 279 279 276 271 266 267 273 272 270 273 269 276 278 278 274 276 281 284 287 284 283 279 279 283 285
184 187 185 189 187 182 182 179 185 184 167 161 156 161 166 176 163 157 153 158 177 188 195 195 189 194 200 207 216 227 239 241 248 253 259 262 264 265 263 262 259 260 259 263 264 265 267 272 277 276 274 275 274 275 277 280 285 288 289 288 285 285 281 277 273 271 271 271 271 270 272 269 272 275 274 275 278 279 280 278 279 280 279 276 281
190 194 196 192 188 187 186 185 189 182 171 160 167 177 175 172 161 166 162 172 177 186 191 191 196 194 197 204 215 231 238 242 249 253 256 261 265 268 262 260 260 258 260 260 264 269 272 271 272 273 275 274 271 275 282 284 287 285 277 270 266 262 260 260 262 262 262 260 260 265 269 270 270 269 269 266 268 270 272 276 278 279 278 278 274
196 194 195 194 195 192 188 192 192 187 168 171 180 182 180 183 164 166 158 171 176 182 193 184 187 188 195 200 216 231 242 246 249 251 256 261 267 267 259 258 256 257 259 263 265 269 267 265 267 271 272 273 271 276 281 285 283 278 275 270 264 258 256 254 265 268 266 264 263 264 263 264 264 266 264 264 268 270 272 272 272 274 275 269 266
198 197 197 197 196 192 188 191 194 189 186 185 192 193 175 181 170 162 154 173 175 183 184 186 186 182 195 200 212 232 238 249 253 255 259 261 264 262 260 258 259 260 262 264 263 264 266 264 266 269 275 276 280 282 284 286 282 275 274 274 266 260 263 264 266 269 270 273 274 279 280 279 279 277 277 282 282 281 280 277 268 272 275 283 282
196 197 203 202 196 192 192 195 197 197 191 197 199 184 145 143 162 159 167 174 183 181 176 177 189 191 191 201 209 223 238 251 259 262 260 258 256 256 254 255 261 260 267 264 263 266 263 261 261 267 271 275 278 281 284 287 284 281 279 280 278 274 269 270 273 266 268 271 282 283 288 288 290 293 293 294 292 290 285 281 286 287 279 276 283
199 203 206 200 192 192 194 196 199 198 199 205 198 193 187 180 140 146 166 170 174 158 172 179 186 196 198 201 218 225 243 258 263 265 262 261 259 253 253 260 264 264 268 268 268 270 272 268 268 267 269 274 280 286 290 292 287 282 281 278 277 274 275 280 280 284 290 293 290 294 293 292 290 285 279 281 281 281 278 280 284 276 277 277 279
203 201 195 199 200 196 196 196 201 199 204 204 195 191 157 139 153 163 165 167 170 171 170 189 181 201 185 183 209 231 240 248 253 261 260 258 253 248 251 253 260 268 269 273 278 276 272 274 274 275 277 281 286 291 293 294 293 284 276 271 276 284 306 301 298 302 306 304 300 298 294 292 289 286 287 288 285 281 280 278 275 273 271 271 271
190 196 195 196 195 196 195 193 197 203 201 195 177 170 157 167 150 161 162 176 165 171 164 182 177 205 205 204 203 219 222 232 248 253 257 252 250 247 248 250 258 265 270 273 273 277 278 275 275 281 285 290 293 295 296 293 291 293 309 313 304 301 304 304 306 306 303 302 300 298 294 291 290 289 287 285 283 279 276 275 273 274 275 277 278
189 190 190 192 189 187 190 193 193 192 178 159 166 175 157 143 150 155 169 166 163 156 153 184 206 211 214 197 210 218 225 229 233 252 250 247 245 243 240 244 247 255 261 262 265 268 276 281 284 287 291 294 295 295 296 303 310 314 307 303 302 304 305 305 311 315 308 302 298 294 294 291 290 289 287 287 286 285 282 278 275 272 270 274 279
185 188 186 184 187 187 188 184 182 170 172 175 169 172 147 147 149 151 164 149 154 165 177 195 206 216 214 220 206 208 213 227 234 238 248 246 245 243 244 246 249 252 256 266 272 279 278 279 283 288 292 294 296 306 313 312 314 307 305 306 308 310 312 312 308 303 298 299 298 294 293 292 292 293 292 292 292 291 289 286 286 286 283 280 276
170 176 185 190 185 187 181 176 169 167 167 163 166 165 167 157 147 162 164 169 173 181 199 186 199 210 214 224 211 199 196 205 235 235 239 245 247 248 248 249 252 254 259 265 269 270 278 284 283 286 293 306 315 316 314 313 308 307 309 309 311 316 317 309 305 301 300 296 292 290 290 292 293 292 292 294 294 293 289 287 284 283 280 279 277
170 185 194 192 189 176 160 167 167 164 163 157 157 163 155 162 167 175 158 182 189 188 194 184 190 203 209 209 204 197 190 202 211 235 238 243 247 251 253 256 258 259 262 265 269 270 272 277 287 302 313 315 314 315 314 312 309 307 309 312 316 313 308 303 302 299 295 293 293 294 295 295 297 297 299 301 301 297 291 287 285 281 278 275 273
185 199 195 189 179 157 162 150 142 141 163 171 174 169 154 163 175 167 172 186 186 187 192 186 192 197 208 209 203 200 199 196 213 216 229 242 249 249 250 252 256 260 263 268 267 272 277 285 302 309 310 310 309 308 305 301 303 305 306 310 306 300 302 301 298 296 291 293 292 291 292 294 296 300 302 302 297 294 295 294 293 288 286 284 281
195 196 193 175 157 160 163 165 163 157 171 169 178 176 169 176 182 174 177 184 184 186 187 189 190 195 199 203 195 190 198 207 208 214 214 228 226 236 238 247 249 254 264 263 267 271 292 307 298 295 301 305 303 298 296 299 299 296 290 299 303 296 289 286 289 293 294 292 292 291 293 295 297 299 301 301 297 293 294 294 291 289 289 287 284
197 201 191 168 163 166 176 174 168 167 183 179 179 183 181 184 187 193 184 182 173 181 180 187 193 192 195 187 184 191 204 206 209 207 221 217 227 225 229 225 248 255 258 261 251 270 6 307 301 300 294 290 289 281 274 277 282 288 291 295 289 288 295 297 296 291 289 291 292 296 296 300 299 299 296 293 293 293 295 293 294 294 293 294 291
209 194 167 147 164 162 185 172 184 176 177 190 211 195 182 183 194 205 197 187 191 184 181 191 189 191 182 186 174 199 206 213 213 212 215 221 219 226 224 244 248 258 255 257 234 114 286 288 274 286 276 273 277 279 284 285 285 286 280 267 276 288 292 290 295 296 299 303 303 303 301 298 296 294 293 292 292 295 296 294 294 295 298 293 289
186 196 167 171 164 159 191 184 183 178 164 186 187 212 219 206 213 193 188 208 223 229 207 191 173 163 185 201 188 196 209 213 224 222 230 234 236 241 250 252 256 252 261 252 108 308 268 262 263 265 272 269 275 281 287 290 292 295 290 300 298 288 293 294 293 296 302 303 300 300 296 294 293 297 298 299 300 301 304 304 300 298 294 292 291
208 202 176 197 184 168 176 180 171 185 174 171 186 200 215 225 222 225 225 210 218 228 228 226 216 206 190 197 213 229 240 244 242 240 240 242 243 249 253 256 255 261 218 105 21 199 272 257 260 254 254 261 265 272 282 286 288 292 296 294 285 289 299 296 293 303 306 302 297 289 290 293 298 301 303 304 303 303 302 299 297 297 296 298 297
209 205 176 158 161 166 178 168 149 175 183 168 179 188 200 196 210 219 221 224 224 226 229 228 228 228 228 223 217 217 241 245 248 251 253 249 250 249 250 252 257 176 140 122 147 252 239 250 249 248 244 259 260 268 279 288 291 292 292 297 298 297 298 299 305 307 297 293 292 298 300 300 301 301 300 302 304 301 301 302 304 303 300 297 293
228 220 150 162 167 175 180 170 171 178 180 171 180 186 198 205 201 184 203 218 225 230 232 233 235 238 239 243 245 246 242 244 245 243 242 249 248 247 247 253 182 153 143 181 210 234 244 234 238 236 238 244 259 262 269 275 283 283 283 288 297 302 299 297 304 293 292 292 297 297 302 303 304 303 301 299 301 301 304 303 302 298 297 296 295
233 248 207 148 154 164 176 181 176 190 190 188 190 185 203 207 209 186 160 166 218 240 243 241 241 243 247 247 246 244 244 244 247 248 252 251 250 244 249 204 159 162 194 207 209 234 229 235 230 234 232 246 253 266 268 272 279 280 281 282 285 293 298 302 299 301 299 301 301 303 304 303 302 303 302 303 300 298 297 298 299 300 299 297 297
212 240 120 145 162 162 170 182 175 181 176 181 179 183 195 195 184 189 210 202 209 206 206 228 235 234 229 232 235 235 237 244 247 251 250 250 242 248 233 160 206 182 195 167 211 218 229 223 229 229 232 237 242 246 263 263 265 271 278 284 289 289 297 303 302 300 298 299 301 301 302 304 304 303 304 303 302 300 301 302 300 297 295 295 296
157 144 105 107 114 133 147 154 163 169 164 166 149 174 157 165 177 200 202 234 258 276 280 226 208 240 239 235 233 240 245 247 250 249 249 244 250 227 186 219 188 214 198 198 190 223 216 228 222 236 228 243 243 248 251 259 260 267 277 280 282 287 291 295 299 300 298 298 298 301 303 301 302 304 301 299 298 299 299 298 297 297 296 296 294
175 133 127 124 110 107 89 89 85 117 134 115 133 144 144 171 185 195 208 218 228 250 249 252 232 254 246 249 258 254 247 245 245 245 242 248 242 200 202 202 222 210 211 202 207 204 221 222 222 222 233 232 245 242 252 259 267 267 271 275 276 282 281 280 288 294 299 298 296 294 297 300 304 302 301 300 301 301 301 300 300 300 301 299 302
46 63 88 95 102 93 105 109 106 116 110 130 151 152 176 183 193 201 217 227 231 229 239 241 237 248 235 231 189 193 243 257 254 252 248 245 208 176 203 209 202 211 215 217 205 210 219 229 222 225 227 235 238 248 248 259 261 267 265 270 277 274 286 291 296 292 286 288 293 298 298 300 302 305 304 300 300 301 302 304 303 302 301 301 300
85 78 91 111 117 119 119 122 131 143 153 151 171 172 189 193 201 212 222 231 231 236 237 237 235 237 234 201 175 202 210 231 216 224 221 221 204 197 185 194 195 208 212 212 211 211 221 224 226 220 227 229 238 239 247 251 256 262 269 272 275 275 280 282 285 290 292 292 294 297 298 298 301 302 303 299 298 301 305 305 304 303 302 302 300
108 115 128 129 122 126 110 103 116 122 162 146 197 182 201 213 224 228 230 228 235 234 234 234 237 235 234 206 192 198 210 223 225 219 215 217 209 193 183 196 203 203 206 210 207 212 218 224 219 223 224 224 232 240 240 252 252 262 265 266 266 270 273 277 282 288 290 293 293 295 295 297 302 303 300 296 298 306 310 308 305 304 301 301 300
87 89 96 121 113 116 117 127 144 171 176 187 210 221 225 222 228 235 240 239 239 240 240 240 246 249 240 232 236 225 213 228 235 234 228 218 218 200 197 204 204 210 208 210 213 216 218 218 219 222 229 231 232 235 241 243 254 259 261 263 265 269 274 276 280 282 288 292 292 292 293 297 302 304 301 298 305 310 309 307 303 302 302 300 300
101 108 113 125 134 155 170 183 193 184 201 222 235 237 243 230 231 238 246 249 249 253 257 260 257 251 256 260 255 249 242 226 230 240 242 230 222 220 210 213 214 208 210 213 211 213 212 213 217 218 226 230 232 239 242 247 246 252 257 263 265 268 269 271 277 282 287 287 287 288 290 294 297 301 301 302 305 309 310 308 305 301 301 303 304
88 97 109 117 140 181 197 207 217 205 218 222 239 245 249 259 260 252 248 247 248 248 251 253 252 247 245 259 262 265 267 256 231 226 227 231 226 225 217 221 222 217 215 220 219 210 210 215 221 226 225 228 227 232 234 244 246 257 261 264 266 265 267 270 273 276 281 288 290 292 291 290 292 294 296 298 301 308 309 307 304 301 302 304 306
104 102 94 93 97 64 86 251 264 254 242 274 307 292 270 260 254 256 261 263 259 256 255 256 258 255 253 253 247 242 237 238 233 230 225 230 229 217 221 220 221 217 213 208 212 207 212 220 226 231 231 234 236 235 242 246 251 251 256 261 265 264 261 259 264 270 282 287 291 290 288 288 290 294 293 294 301 309 310 308 305 304 305 305 305
105 105 128 128 145 143 197 173 195 250 277 266 239 246 245 244 252 256 254 255 258 258 260 261 264 267 267 262 249 240 241 240 236 229 223 220 228 221 223 222 213 212 215 221 213 208 211 221 229 238 247 244 239 240 241 240 237 244 245 251 254 261 260 263 266 277 280 283 283 284 285 287 291 291 290 292 301 310 307 307 306 307 306 304 308
113 114 114 123 126 162 157 179 178 214 245 247 252 253 253 247 246 246 251 256 257 257 258 256 253 252 255 257 257 255 253 250 245 233 231 226 225 223 215 213 213 211 214 217 215 211 219 222 228 236 242 245 244 242 249 246 247 244 245 244 250 255 260 265 267 270 270 270 278 282 285 283 283 283 289 294 305 307 302 300 298 297 297 303 303
107 120 124 123 177 86 232 248 230 239 230 238 242 246 252 252 256 257 255 252 256 261 260 258 257 254 251 250 246 248 246 242 234 231 228 228 229 227 224 212 209 216 224 227 227 228 226 229 233 237 243 248 251 251 253 253 253 250 246 245 244 250 251 255 254 256 265 275 278 277 276 279 281 283 285 291 303 303 301 298 297 298 299 300 302
109 84 80 64 18 265 266 238 247 252 250 252 249 254 256 262 261 256 256 257 255 250 253 256 257 257 254 253 251 248 246 246 243 237 236 229 226 223 226 226 225 226 228 231 230 228 227 231 229 230 235 239 242 247 250 251 251 247 249 250 252 251 255 257 259 266 266 270 268 270 272 274 276 277 278 288 296 299 299 299 300 298 298 300 303
64 132 190 200 233 247 247 259 252 250 253 257 255 246 247 246 247 248 249 246 249 248 250 251 255 253 252 254 253 251 244 241 240 241 235 234 230 226 219 217 221 220 226 234 231 229 232 234 234 236 235 239 240 243 247 247 250 251 253 253 255 258 261 262 263 261 266 267 269 269 268 266 271 277 280 284 291 292 290 289 292 294 298 300 301
178 216 245 252 245 246 254 252 257 257 260 255 251 257 257 256 257 256 254 253 253 250 251 251 251 250 251 253 248 249 245 243 240 237 236 236 232 224 219 215 216 222 226 235 236 238 238 239 236 238 238 239 240 244 247 249 250 252 253 251 256 258 259 265 267 267 266 259 259 262 270 278 279 277 277 286 289 288 288 288 292 296 298 299 301
220 240 244 240 246 251 244 243 246 248 244 246 252 253 255 258 259 254 252 248 249 254 258 254 251 249 245 244 244 243 241 243 244 246 245 242 238 233 232 230 232 233 235 236 242 242 242 242 243 243 241 239 239 239 242 243 248 248 251 254 256 259 266 269 268 266 263 265 268 274 276 277 278 279 282 287 289 286 284 289 294 296 297 297 298